Weather History for KINT - May, 2013

Change the Weather History Date:

Thursday, May 16, 2013

  Actual Average Record
Temperature  
Mean Temperature 73 °F -  
Max Temperature 82 °F 75 °F 89 °F (1991)
Min Temperature 64 °F 54 °F 34 °F (1973)
Cooling Degree Days 8    
Growing Degree Days 23 (Base 50)    
Moisture  
Dew Point 55 °F    
Average Humidity 54    
Maximum Humidity 87    
Minimum Humidity 37    
Precipitation  
Precipitation 0.00 in - - ()
Sea Level Pressure  
Sea Level Pressure 29.96 in    
Wind  
Wind Speed 4 mph (WSW)    
Max Wind Speed 9 mph    
Max Gust Speed 17 mph    
Visibility 10 miles    
Events      
Averages and records for this station are not official NWS values.
T = Trace of Precipitation, MM = Missing Value Source: NWS Daily Summary

Daily Weather History Graph

Daily Weather History Graph

Search for Another Location

Airport or City:

Trip Planner

Search our weather history database for the weather conditions in past years. The results will help you decide how hot, cold, wet, or windy it might be!

Date:

Astronomy

May. 16, 2013 Rise Set
Actual Time 6:13 AM EDT 8:21 PM EDT
Civil Twilight 5:45 AM EDT 8:49 PM EDT
Nautical Twilight 5:10 AM EDT 9:25 PM EDT
Astronomical Twilight 4:32 AM EDT 10:02 PM EDT
Moon 11:42 AM EDT (5/16) 12:43 AM EDT (5/16)
Length of Visible Light 15h 04m
Length of Day
14h 07m
Waxing Crescent, 35% of the Moon is Illuminated
May 16
Waxing Crescent
May 18
First Quarter
May 25
Full
May 31
Last Quarter
Jun 8
New

Hourly Weather History & Observations

Time (EDT) Temp. Heat Index Dew Point Humidity Pressure Visibility Wind Dir Wind Speed Gust Speed Precip Events Conditions
12:54 AM 73.9 °F - 59.0 °F 59% 29.93 in 10.0 mi SW 3.5 mph - N/A   Clear
1:54 AM 72.0 °F - 59.0 °F 64% 29.92 in 10.0 mi Variable 3.5 mph - N/A   Clear
2:54 AM 69.1 °F - 60.1 °F 73% 29.92 in 10.0 mi West 3.5 mph - N/A   Clear
3:54 AM 64.0 °F - 60.1 °F 87% 29.91 in 10.0 mi Calm Calm - N/A   Clear
4:54 AM 64.0 °F - 57.0 °F 78% 29.92 in 10.0 mi Calm Calm - N/A   Clear
5:54 AM 66.9 °F - 53.1 °F 61% 29.93 in 10.0 mi WNW 4.6 mph - N/A   Clear
6:54 AM 64.9 °F - 54.0 °F 68% 29.94 in 10.0 mi Calm Calm - N/A   Clear
7:54 AM 70.0 °F - 53.1 °F 55% 29.96 in 10.0 mi West 4.6 mph - N/A   Clear
8:54 AM 73.0 °F - 53.1 °F 49% 29.98 in 10.0 mi West 4.6 mph - N/A   Clear
9:54 AM 75.0 °F - 52.0 °F 44% 29.99 in 10.0 mi West 6.9 mph - N/A   Clear
10:54 AM 77.0 °F - 53.1 °F 43% 29.99 in 10.0 mi West 8.1 mph - N/A   Clear
11:54 AM 79.0 °F - 53.1 °F 40% 29.99 in 10.0 mi WSW 9.2 mph 16.1 mph N/A   Clear
12:54 PM 80.1 °F 79.9 °F 53.1 °F 39% 29.99 in 10.0 mi WSW 8.1 mph - N/A   Clear
1:54 PM 81.0 °F 80.4 °F 53.1 °F 38% 29.96 in 10.0 mi Variable 5.8 mph 17.3 mph N/A   Clear
2:54 PM 82.0 °F 81.2 °F 53.1 °F 37% 29.96 in 10.0 mi Variable 6.9 mph 16.1 mph N/A   Clear
3:54 PM 80.1 °F 80.0 °F 54.0 °F 40% 29.95 in 10.0 mi SW 9.2 mph - N/A   Clear
4:54 PM 80.1 °F 80.0 °F 54.0 °F 40% 29.94 in 10.0 mi WSW 6.9 mph - N/A   Clear
5:54 PM 78.8 °F - 55.4 °F 44% 29.97 in 10.0 mi Variable 5.8 mph - N/A   Clear
6:54 PM 78.1 °F - 55.0 °F 45% 29.95 in 10.0 mi WSW 4.6 mph - N/A   Clear
7:54 PM 77.0 °F - 55.9 °F 48% 29.95 in 10.0 mi SW 3.5 mph - N/A   Clear
8:54 PM 75.0 °F - 57.9 °F 55% 29.97 in 10.0 mi Calm Calm - N/A   Clear
9:54 PM 73.9 °F - 57.9 °F 57% 29.99 in 10.0 mi Calm Calm - N/A   Clear
10:54 PM 72.0 °F - 57.9 °F 61% 30.00 in 10.0 mi SW 4.6 mph - N/A   Clear
11:54 PM 71.1 °F - 57.9 °F 63% 29.99 in 10.0 mi WSW 4.6 mph - N/A   Clear